Wetbulb
74.95 75.41 74.88 72.28 62.49 63.22 58.75 61.09 64.90 64.40 64.80 67.71 68.81 65.92 65.69 65.97 63.78 61.35 73.59 74.11 74.49 74.43 75.54 76.33 77.09 76.92 76.91 76.94 76.84 76.68 76.77 76.82 77.07 76.93 76.61 76.37 76.75 76.62 76.23 75.38 76.20 75.87 75.44 75.16 75.74 75.91 76.02 76.13 76.21
75.19 74.50 74.51 68.16 61.50 56.44 57.84 62.79 61.72 65.21 67.58 69.32 68.87 67.99 66.74 65.07 70.22 70.16 71.19 74.30 74.71 75.03 75.74 75.42 77.24 77.79 77.42 77.54 77.52 77.40 77.14 77.11 77.02 77.18 77.09 76.92 76.66 76.45 75.27 75.89 76.21 75.75 76.33 75.72 75.38 75.75 76.21 75.97 76.34
75.49 74.88 67.33 65.77 63.83 55.98 57.84 62.59 65.39 66.90 68.02 68.31 66.51 68.43 68.22 66.59 70.18 71.47 74.10 74.56 75.50 74.76 74.83 77.35 77.42 77.87 77.56 77.25 77.26 77.53 77.31 77.07 76.95 77.07 76.86 76.72 76.39 76.52 76.49 76.35 76.07 75.61 75.80 76.00 75.83 75.96 76.05 75.83 75.55
72.71 72.19 70.27 62.84 59.69 61.43 62.94 64.39 67.34 66.69 68.11 68.90 66.94 64.95 68.99 72.59 70.80 72.53 74.96 74.51 74.83 74.42 75.74 77.44 77.83 77.48 77.63 77.70 77.48 77.29 76.97 76.81 76.99 76.77 76.89 76.78 76.95 75.75 76.11 76.19 76.49 75.99 75.86 76.02 75.77 75.47 75.36 75.66 75.80
73.04 69.24 63.00 63.07 59.78 64.44 66.00 66.80 68.05 65.93 67.43 67.50 67.51 64.52 65.49 71.10 73.84 74.03 74.41 74.83 74.02 73.70 75.78 76.97 77.94 77.47 77.58 77.44 77.21 77.24 77.04 76.98 76.82 76.78 76.91 76.76 76.79 76.58 76.11 75.91 75.94 75.83 75.99 75.55 75.58 75.55 75.18 75.49 75.36
66.35 69.21 62.44 59.76 59.26 64.11 66.46 67.97 67.65 66.64 67.99 68.32 68.20 66.49 66.94 72.08 72.90 73.95 74.71 74.15 73.35 73.50 75.42 76.17 77.62 77.39 77.41 77.40 77.11 76.99 77.03 77.12 76.95 76.95 76.97 77.26 76.88 76.83 76.38 76.52 76.27 75.94 76.02 75.60 75.38 74.80 75.46 75.72 75.47
66.37 64.43 61.01 61.48 61.00 62.26 65.05 69.53 66.94 66.69 67.27 67.44 70.09 66.65 68.72 70.28 73.38 74.03 74.16 73.97 73.11 73.81 74.93 75.95 77.05 77.41 77.06 77.41 76.97 77.44 77.57 77.29 77.06 77.27 77.17 76.41 76.16 76.82 76.69 76.30 75.99 75.82 75.54 75.31 75.49 75.02 74.96 75.30 75.77
68.58 66.58 60.34 61.94 60.16 61.35 68.60 68.28 69.22 68.27 67.54 71.26 71.12 65.42 66.09 71.09 73.77 73.34 73.52 72.99 72.66 74.31 74.38 75.72 76.68 75.93 76.26 76.87 76.56 77.26 77.34 77.12 76.95 77.37 77.55 77.05 77.27 76.69 76.24 76.51 75.96 75.86 75.58 75.41 75.39 75.30 75.44 75.88 75.91
68.86 63.52 60.99 59.02 61.53 62.45 69.07 67.69 70.48 71.36 68.45 68.98 69.34 70.66 71.62 72.89 73.66 71.34 71.50 71.71 71.88 73.27 74.09 74.92 75.26 76.53 76.14 76.08 77.34 77.17 77.16 77.55 77.48 77.10 77.25 77.75 76.29 76.91 76.30 76.23 75.64 75.95 75.84 75.44 75.33 75.63 76.30 76.91 76.27
65.56 63.93 60.04 64.64 65.73 65.26 68.23 67.70 69.77 68.49 68.20 66.99 68.81 71.75 72.09 72.33 71.86 69.83 70.40 70.08 70.44 72.15 73.26 73.99 75.24 76.60 75.76 74.96 77.34 77.71 76.75 76.88 77.49 77.16 78.31 75.29 77.94 77.01 75.68 75.93 75.43 75.80 75.98 75.84 75.65 75.73 76.27 76.35 74.59
64.80 61.17 65.65 65.82 67.55 68.05 67.93 67.84 69.76 67.49 65.96 68.23 68.34 69.83 70.41 70.04 70.52 70.97 70.80 70.94 70.62 72.20 72.84 73.36 75.90 75.95 75.97 75.99 76.17 75.45 76.11 76.36 77.06 77.77 77.66 77.73 75.87 76.19 75.50 75.51 75.96 75.94 76.30 75.21 75.56 75.38 74.83 72.76 74.23
62.30 64.89 65.87 65.68 67.90 67.12 66.50 68.59 68.06 68.20 65.19 70.94 71.26 71.27 70.13 69.95 70.63 71.01 70.61 71.16 70.84 71.75 72.62 73.66 74.86 76.50 76.42 75.25 75.44 75.12 75.33 75.62 75.48 76.65 77.37 76.93 76.62 77.00 75.59 75.01 76.81 75.38 76.82 75.01 73.72 75.83 76.26 75.60 75.32
62.36 64.13 64.01 66.64 68.11 67.86 68.21 67.26 65.97 67.08 70.67 71.91 71.65 71.14 69.98 70.58 71.04 71.57 71.70 71.91 71.67 71.37 72.49 73.93 75.07 75.67 76.45 76.56 75.92 76.14 75.13 75.46 75.34 76.46 77.20 76.91 75.19 77.65 75.60 77.49 76.81 75.50 75.85 75.61 75.64 75.66 73.84 73.30 73.97
61.11 63.12 63.48 65.14 67.85 66.44 65.79 66.77 68.18 68.67 71.46 71.05 70.63 70.39 70.80 70.78 71.14 71.65 71.71 71.48 71.36 71.63 72.38 74.10 74.66 75.60 76.71 76.50 77.13 76.72 75.77 75.27 76.90 76.26 76.93 77.91 76.72 77.81 77.00 76.89 76.70 76.08 72.88 74.00 76.00 76.40 75.66 75.29 74.12
59.49 57.00 59.78 62.01 66.63 65.83 67.27 63.45 65.18 69.67 70.98 70.18 70.12 70.44 70.93 70.94 71.44 71.15 71.80 71.88 71.65 71.44 72.64 73.73 74.40 75.34 76.43 76.90 76.41 76.13 75.84 76.01 76.22 76.59 77.57 77.83 78.50 77.93 79.57 77.50 77.10 75.20 77.32 77.61 76.75 76.20 74.71 75.16 72.02
54.91 56.52 54.46 59.21 63.52 65.25 65.51 59.94 65.57 70.94 69.85 69.22 69.87 69.78 70.20 70.72 70.98 71.85 72.30 72.58 72.26 71.25 72.20 73.84 73.68 74.59 75.94 76.77 76.56 75.62 75.42 75.55 75.49 75.83 76.76 77.69 78.36 78.15 78.64 77.00 76.24 76.39 78.36 73.78 75.94 75.86 70.53 73.83 70.75
52.36 50.10 52.73 55.79 62.15 62.30 62.44 60.58 60.70 70.35 69.67 69.00 69.58 69.54 69.88 70.34 70.74 71.84 72.33 72.76 72.21 71.53 72.24 73.14 73.84 73.89 75.36 76.93 76.39 76.09 77.57 76.52 76.59 77.32 76.61 78.26 78.19 77.94 78.21 76.57 76.78 77.98 76.78 75.69 75.07 73.18 72.32 72.50 72.85
48.76 48.75 51.68 53.23 57.87 59.20 59.92 61.19 60.41 68.52 68.89 68.88 69.54 69.60 69.42 69.74 70.47 71.64 72.17 72.89 72.43 71.94 72.37 73.31 73.37 76.56 77.22 76.16 76.78 75.57 75.61 75.93 76.59 76.34 76.89 78.86 78.61 78.19 78.66 77.20 77.58 77.53 75.39 74.79 72.59 75.45 74.54 74.17 70.38
52.26 51.33 50.05 54.04 57.65 58.13 57.97 61.90 63.06 67.84 68.26 68.49 69.15 69.41 68.93 70.14 71.52 72.12 72.17 72.71 72.16 72.11 72.06 73.06 74.63 77.94 75.18 73.85 73.59 73.97 73.27 75.12 77.26 75.95 78.22 78.53 77.99 77.83 78.79 74.97 77.32 78.48 77.33 76.26 76.27 74.90 73.66 72.68 73.26
51.70 50.72 50.88 52.84 56.21 56.64 58.71 59.05 63.60 67.05 67.43 68.55 68.98 69.46 69.68 70.21 70.94 71.40 71.72 72.20 71.98 71.78 72.49 74.48 75.61 77.62 75.82 74.36 75.16 75.41 75.71 74.80 75.46 75.93 78.10 78.20 78.03 78.50 78.02 75.61 77.25 77.39 76.30 76.46 75.90 76.41 71.46 72.59 72.50
51.04 50.43 50.67 50.96 53.79 56.32 55.87 58.22 61.97 64.70 67.84 68.64 69.85 70.65 70.80 69.80 70.61 70.83 71.23 71.72 72.06 71.70 72.86 74.87 76.54 77.37 76.61 76.66 75.65 75.81 76.63 77.21 74.73 76.38 76.16 77.61 78.03 78.29 79.04 78.21 78.20 77.85 77.15 75.27 76.20 76.11 77.29 72.39 72.08
49.11 52.36 51.95 50.88 50.62 49.33 55.89 49.90 59.85 61.04 65.15 66.49 68.07 69.49 70.25 70.62 70.85 71.52 71.57 71.80 72.02 72.16 72.68 75.65 76.31 77.36 76.79 77.80 74.79 76.46 73.82 72.80 74.11 75.66 75.58 76.76 78.20 78.08 78.28 78.42 78.25 78.25 76.68 77.64 76.87 75.88 77.07 76.51 71.39
50.20 53.23 51.64 50.92 49.88 50.60 52.57 50.92 56.48 62.66 60.98 65.04 67.07 68.62 70.03 71.16 70.72 71.11 72.03 72.51 72.86 72.93 72.49 73.64 76.72 77.36 77.33 77.02 77.17 75.19 75.58 73.92 74.33 74.40 79.11 80.65 80.15 78.40 77.48 78.44 78.37 77.39 76.88 77.76 78.01 77.53 78.06 74.75 73.82
53.65 51.50 51.59 51.46 49.32 44.58 48.84 50.42 52.56 57.34 61.99 63.60 66.81 68.17 69.78 70.88 71.27 71.51 72.59 73.36 73.14 73.67 73.41 73.05 76.25 77.36 77.94 77.46 76.74 77.90 76.59 76.81 73.72 75.08 75.04 74.82 75.97 76.81 78.36 77.73 78.72 79.92 78.27 78.10 77.48 78.11 77.60 77.86 76.79
52.30 50.27 44.67 43.58 43.69 42.98 49.85 47.60 52.51 58.22 61.73 64.16 65.97 67.77 69.40 70.69 71.53 71.45 71.56 72.12 73.00 73.32 74.03 74.52 76.00 77.10 77.56 77.77 76.34 77.24 78.56 78.26 78.65 77.95 74.71 75.75 73.85 74.36 78.95 80.02 79.30 78.49 79.03 78.95 78.75 78.61 77.78 77.32 76.34
50.91 50.23 45.93 41.15 42.84 44.75 49.82 46.22 49.20 57.18 61.18 63.50 66.34 68.16 69.43 69.97 71.27 71.76 72.16 72.26 73.05 74.02 75.37 75.90 76.42 76.97 77.89 77.45 77.47 77.08 78.19 74.84 75.16 77.61 74.91 74.03 73.63 74.87 80.87 78.69 78.19 78.28 78.69 78.37 79.64 77.58 77.10 79.26 76.49
50.97 48.37 52.20 48.13 50.42 47.16 48.56 50.36 53.58 55.17 56.61 60.47 63.52 66.71 67.44 69.48 70.32 71.61 72.49 72.81 72.94 74.22 75.68 76.19 77.04 77.75 77.97 77.26 77.78 78.42 77.94 76.14 75.14 78.10 79.10 76.38 78.02 75.66 77.15 77.56 78.47 78.62 78.66 78.95 80.50 77.03 78.25 77.64 78.13
51.50 54.03 47.56 48.03 42.65 42.92 47.97 49.45 48.91 52.77 54.00 57.95 61.82 64.56 66.31 69.41 70.28 71.07 71.94 72.79 73.37 73.86 75.01 76.64 77.32 78.02 78.31 77.78 77.92 77.89 78.21 78.23 77.48 78.46 79.24 78.14 79.71 79.26 77.55 77.78 77.16 77.99 78.92 79.07 80.72 78.89 79.59 79.17 77.35
48.82 48.83 50.20 50.51 48.25 44.27 44.39 48.44 55.98 55.27 55.38 56.16 59.52 63.82 65.66 68.07 69.55 70.89 71.64 72.87 73.86 74.31 74.32 74.84 76.42 77.85 77.59 77.64 78.19 77.81 77.81 77.91 77.35 77.92 78.94 79.44 80.15 80.58 79.52 78.92 77.86 77.74 77.80 79.03 80.28 80.15 78.91 79.24 79.25
48.82 48.98 49.77 46.74 46.32 48.07 48.20 49.26 57.75 57.52 57.36 57.64 58.60 60.61 63.14 65.88 68.72 70.50 71.50 72.83 73.23 73.89 74.30 74.50 74.96 75.12 77.16 77.67 78.28 77.90 78.41 78.15 77.50 76.55 78.41 79.64 79.89 80.56 80.78 79.86 79.20 77.79 77.80 79.39 79.08 77.38 77.81 77.06 77.28
MSLP
1011.01 1010.51 1010.22 1009.94 1010.34 1008.32 1005.98 1004.39 1003.34 1002.84 1003.22 1003.68 1004.02 1004.82 1005.74 1007.34 1007.48 1009.01 1010.56 1011.47 1012.47 1013.38 1014.43 1015.06 1015.64 1015.81 1016.01 1016.22 1016.43 1016.54 1016.68 1016.81 1016.89 1016.96 1017.08 1017.24 1017.32 1017.47 1017.56 1017.67 1017.72 1017.74 1017.74 1017.76 1017.76 1017.78 1017.87 1017.98 1018.01
1009.59 1009.82 1009.65 1009.74 1008.91 1006.42 1005.25 1004.14 1003.36 1002.79 1003.12 1003.57 1004.46 1005.10 1005.57 1007.24 1008.02 1009.48 1010.51 1011.52 1012.30 1012.99 1013.82 1014.78 1015.78 1015.90 1016.14 1016.27 1016.46 1016.67 1016.81 1016.94 1017.01 1017.11 1017.24 1017.49 1017.53 1017.69 1017.82 1017.86 1017.86 1017.94 1017.92 1017.94 1018.02 1018.07 1018.22 1018.17 1018.32
1009.30 1009.30 1009.78 1008.53 1006.88 1006.03 1004.61 1003.67 1002.58 1003.41 1004.22 1003.98 1005.65 1006.27 1006.85 1008.22 1009.10 1009.75 1010.60 1011.69 1012.15 1012.43 1013.47 1015.30 1015.91 1016.05 1016.28 1016.43 1016.64 1016.80 1017.01 1017.16 1017.24 1017.37 1017.49 1017.56 1017.81 1017.82 1017.98 1018.02 1018.10 1018.22 1018.22 1018.27 1018.38 1018.36 1018.42 1018.48 1018.63
1009.22 1009.32 1008.38 1007.18 1005.63 1004.27 1003.28 1003.20 1002.71 1003.45 1004.08 1004.61 1006.06 1007.34 1008.70 1008.76 1009.62 1010.31 1010.64 1011.68 1011.72 1012.31 1013.75 1015.70 1016.02 1016.22 1016.44 1016.62 1016.85 1017.04 1017.19 1017.31 1017.46 1017.64 1017.68 1017.87 1017.90 1018.09 1018.16 1018.24 1018.31 1018.37 1018.48 1018.58 1018.72 1018.74 1018.76 1018.84 1018.91
1008.80 1008.40 1007.00 1005.18 1004.31 1002.80 1003.14 1002.77 1002.41 1002.92 1003.46 1004.69 1005.85 1007.91 1009.16 1009.69 1009.58 1010.25 1010.51 1010.83 1011.18 1012.33 1014.29 1015.52 1016.18 1016.47 1016.70 1016.90 1017.15 1017.34 1017.41 1017.64 1017.73 1017.84 1017.86 1018.03 1018.10 1018.22 1018.42 1018.54 1018.60 1018.66 1018.70 1018.80 1018.89 1018.92 1018.96 1019.05 1019.17
1008.44 1006.42 1005.65 1004.51 1003.91 1003.14 1002.51 1002.52 1002.88 1003.21 1003.72 1004.75 1005.78 1007.60 1009.58 1010.39 1009.82 1010.06 1010.35 1010.59 1011.23 1012.58 1013.84 1015.50 1016.42 1016.73 1016.88 1017.10 1017.37 1017.55 1017.62 1017.82 1017.98 1018.09 1018.14 1018.20 1018.30 1018.52 1018.61 1018.68 1018.82 1018.90 1018.95 1019.04 1019.10 1019.19 1019.19 1019.26 1019.35
1006.91 1006.04 1003.95 1003.22 1002.81 1002.66 1002.57 1001.96 1002.78 1003.13 1003.73 1004.66 1005.68 1006.70 1009.06 1010.03 1009.77 1010.12 1010.39 1010.73 1011.36 1012.56 1013.77 1015.11 1016.06 1016.88 1017.12 1017.37 1017.73 1017.74 1017.84 1017.97 1018.13 1018.24 1018.34 1018.46 1018.49 1018.64 1018.80 1018.86 1018.94 1019.05 1019.19 1019.21 1019.44 1019.40 1019.42 1019.46 1019.53
1005.28 1004.85 1003.80 1002.41 1002.50 1001.96 1001.43 1002.35 1003.26 1002.95 1003.90 1004.77 1005.87 1006.78 1008.22 1008.92 1009.60 1010.08 1010.44 1011.00 1011.54 1012.45 1013.98 1014.71 1015.58 1016.22 1016.69 1017.27 1017.85 1018.00 1018.02 1018.22 1018.39 1018.41 1018.44 1018.43 1018.53 1018.65 1018.87 1018.95 1019.05 1019.18 1019.22 1019.34 1019.48 1019.49 1019.38 1019.33 1019.44
1005.52 1005.10 1003.18 1003.34 1002.28 1002.52 1001.32 1001.80 1002.82 1004.15 1004.54 1005.32 1006.14 1006.19 1007.52 1008.68 1009.51 1010.12 1010.49 1011.13 1011.85 1012.51 1013.56 1014.14 1014.95 1015.76 1016.05 1016.80 1017.87 1018.19 1018.33 1018.36 1018.47 1018.42 1018.38 1018.37 1017.67 1018.07 1018.48 1019.09 1019.14 1019.30 1019.27 1019.43 1019.48 1019.28 1019.04 1018.96 1019.09
1004.73 1003.60 1003.80 1002.68 1001.39 1001.77 1001.38 1002.09 1002.54 1003.69 1004.17 1005.19 1005.68 1006.24 1007.84 1008.74 1009.63 1010.27 1010.25 1011.00 1011.97 1012.58 1013.18 1013.77 1014.20 1015.42 1015.60 1015.85 1017.29 1017.22 1017.69 1017.52 1017.52 1017.74 1017.80 1018.13 1017.68 1018.15 1018.20 1018.94 1019.27 1019.41 1019.33 1019.39 1019.26 1018.85 1017.98 1018.14 1018.04
1003.83 1003.10 1002.27 1002.40 1001.78 1001.34 1001.47 1001.91 1002.52 1002.37 1002.87 1003.91 1005.07 1006.68 1008.26 1009.12 1010.08 1010.22 1010.18 1010.92 1011.99 1012.75 1012.82 1013.48 1014.00 1015.12 1015.12 1015.95 1016.22 1016.44 1016.71 1016.77 1017.37 1017.84 1017.83 1017.72 1017.92 1018.06 1018.18 1018.60 1018.65 1018.76 1019.17 1018.62 1018.51 1018.93 1017.69 1019.07 1018.52
1003.20 1002.18 1001.84 1003.00 1001.76 1001.62 1001.36 1001.46 1001.71 1002.10 1001.90 1002.75 1005.01 1006.92 1008.91 1009.54 1009.88 1009.63 1010.00 1010.79 1012.01 1012.81 1012.93 1013.54 1014.48 1015.03 1015.03 1015.86 1015.62 1015.76 1015.82 1016.46 1017.00 1017.68 1017.89 1018.09 1017.73 1017.99 1018.45 1018.26 1018.25 1018.87 1018.10 1018.97 1019.17 1017.98 1017.84 1017.64 1018.44
1002.76 1001.84 1001.78 1001.70 1001.72 1001.89 1001.45 1001.32 1001.36 1001.59 1002.02 1003.36 1005.41 1007.08 1008.69 1009.17 1009.68 1009.85 1010.02 1010.92 1012.10 1012.85 1013.16 1013.92 1015.06 1015.71 1015.77 1016.11 1015.52 1015.56 1015.89 1016.09 1016.78 1017.57 1017.73 1017.45 1017.57 1017.92 1018.30 1018.33 1018.03 1018.45 1017.79 1017.47 1018.40 1018.02 1018.65 1018.21 1017.63
1001.88 1001.93 1001.45 1001.23 1001.06 1001.96 1001.33 1000.97 1001.41 1001.66 1002.84 1004.25 1005.72 1006.86 1008.02 1008.48 1008.92 1009.30 1009.77 1010.65 1011.98 1012.85 1013.29 1014.18 1015.22 1015.96 1016.03 1016.31 1016.31 1016.17 1016.03 1017.23 1016.64 1017.21 1017.73 1017.86 1018.10 1017.92 1018.04 1018.13 1018.22 1017.80 1018.21 1018.20 1018.55 1018.42 1018.70 1018.69 1018.50
1002.02 1001.90 1001.33 1001.01 1000.62 1000.70 1001.17 1001.36 1001.05 1001.64 1003.08 1004.21 1005.47 1006.54 1007.39 1007.97 1008.48 1009.00 1009.70 1010.47 1011.79 1012.74 1013.47 1014.25 1015.12 1015.85 1016.19 1016.42 1016.93 1016.64 1016.27 1016.48 1017.12 1017.40 1018.02 1017.98 1018.19 1018.16 1018.10 1018.31 1018.02 1018.34 1018.06 1018.18 1018.42 1018.60 1018.97 1018.63 1020.24
1002.14 1001.79 1000.27 999.86 1000.32 1000.33 1000.77 1000.40 1000.58 1002.14 1003.02 1003.81 1004.98 1006.08 1006.93 1007.62 1008.30 1009.06 1009.76 1010.53 1011.74 1012.54 1013.44 1014.24 1014.68 1015.58 1016.16 1016.44 1016.98 1016.68 1016.49 1016.32 1017.02 1017.12 1017.78 1018.11 1018.31 1018.40 1018.48 1018.40 1018.22 1018.13 1018.31 1019.50 1018.40 1018.82 1019.17 1019.90 1019.57
1001.25 1000.09 999.62 998.87 999.00 999.62 1000.26 1001.05 1003.17 1002.37 1002.76 1003.37 1004.42 1005.59 1006.43 1007.21 1008.15 1009.00 1009.68 1010.44 1011.44 1012.37 1013.42 1014.08 1014.61 1015.23 1016.06 1016.45 1016.85 1016.69 1016.74 1016.56 1016.96 1017.22 1017.74 1018.08 1018.35 1018.51 1018.53 1019.08 1018.58 1018.82 1018.19 1018.64 1018.75 1019.64 1019.92 1019.60 1019.16
999.62 999.52 998.28 998.05 998.02 998.85 999.44 1000.73 1001.58 1002.09 1002.04 1002.82 1003.74 1004.93 1005.90 1006.68 1007.53 1008.67 1009.45 1010.23 1011.20 1012.16 1013.28 1014.08 1014.58 1015.02 1016.04 1016.44 1016.76 1016.68 1016.88 1016.73 1016.64 1017.11 1017.86 1017.92 1018.06 1018.30 1018.74 1018.92 1018.73 1018.50 1018.10 1018.53 1020.06 1019.53 1019.37 1019.02 1019.30
999.00 998.52 998.06 996.89 997.46 998.34 998.92 999.28 1000.03 1000.32 1001.20 1002.08 1003.04 1004.19 1005.12 1005.98 1007.16 1008.21 1009.22 1010.03 1010.83 1011.83 1012.92 1013.93 1014.44 1015.00 1015.82 1016.29 1016.59 1016.50 1016.47 1016.62 1016.62 1016.44 1017.02 1017.74 1017.70 1018.08 1018.32 1019.19 1018.71 1018.69 1018.61 1018.85 1019.15 1019.22 1019.28 1018.96 1018.77
1000.06 999.03 997.85 997.43 996.86 997.46 998.06 998.46 999.18 999.82 1000.24 1001.03 1002.16 1003.30 1004.28 1005.25 1006.47 1007.57 1008.76 1009.53 1010.36 1011.41 1012.48 1013.55 1014.24 1014.95 1015.71 1015.98 1016.26 1016.16 1016.21 1016.26 1016.18 1016.47 1017.13 1017.56 1017.79 1018.02 1018.09 1019.32 1018.72 1018.67 1018.82 1019.21 1019.38 1019.26 1019.77 1018.99 1019.13
1000.24 999.52 998.80 998.12 997.52 997.94 997.99 997.62 997.90 999.60 999.59 1000.19 1001.29 1002.61 1003.50 1004.41 1005.31 1006.82 1008.07 1008.86 1009.86 1010.82 1011.90 1012.98 1013.94 1014.67 1015.51 1015.59 1016.08 1016.30 1016.25 1016.02 1016.24 1016.44 1016.90 1017.36 1017.62 1017.91 1018.00 1018.44 1019.03 1018.76 1018.72 1018.91 1019.38 1019.17 1019.02 1018.79 1018.78
999.94 1000.18 999.87 999.07 998.30 997.41 998.16 997.10 996.85 998.02 998.67 999.30 1000.40 1001.46 1002.30 1003.47 1004.60 1005.83 1007.08 1008.13 1008.91 1009.96 1011.28 1012.36 1013.49 1014.27 1015.14 1015.50 1015.58 1015.90 1015.77 1015.62 1015.61 1016.00 1016.32 1016.77 1017.36 1017.57 1017.98 1018.35 1018.54 1018.88 1018.52 1018.62 1018.93 1018.87 1018.80 1018.92 1018.61
1000.38 1000.40 1000.18 999.94 999.06 998.43 997.46 997.27 995.17 996.44 997.94 997.66 998.95 1000.20 1001.22 1002.30 1003.45 1004.35 1005.60 1006.85 1007.94 1009.24 1010.32 1011.52 1012.88 1013.74 1014.35 1015.07 1015.10 1015.54 1015.65 1015.52 1015.61 1015.60 1016.05 1016.54 1017.13 1017.36 1017.52 1018.02 1018.43 1018.84 1018.60 1018.82 1018.86 1018.99 1019.14 1018.71 1018.58
1001.37 1001.02 1000.40 999.88 999.59 998.20 997.58 996.50 995.17 994.94 995.39 996.74 997.04 998.67 1000.12 1000.93 1002.29 1003.33 1004.55 1005.97 1007.22 1008.37 1009.48 1010.65 1011.92 1013.00 1013.79 1014.42 1014.98 1015.10 1015.42 1015.20 1015.12 1015.48 1015.80 1016.52 1016.58 1017.24 1017.40 1017.66 1018.04 1018.38 1018.24 1018.79 1018.84 1019.08 1019.29 1019.27 1018.67
1001.17 1000.66 999.90 999.44 998.41 997.07 996.95 996.22 994.59 993.98 994.25 994.42 995.35 996.98 998.70 999.88 1001.10 1002.41 1003.41 1004.68 1006.04 1007.05 1008.17 1009.36 1010.74 1011.97 1013.01 1013.68 1014.37 1014.69 1014.96 1015.34 1015.22 1015.46 1015.60 1015.78 1015.86 1016.02 1016.74 1017.37 1017.84 1018.03 1018.35 1018.35 1018.54 1019.07 1019.29 1019.35 1019.15
1000.04 999.71 998.52 997.48 996.56 996.24 996.28 994.24 994.02 994.38 993.74 994.13 993.88 995.06 997.05 998.77 999.94 1001.32 1002.37 1003.47 1004.71 1005.83 1007.02 1008.19 1009.48 1010.81 1011.85 1012.66 1013.44 1014.33 1014.69 1014.81 1015.20 1015.28 1015.22 1015.52 1015.27 1015.49 1015.96 1016.85 1017.22 1017.68 1017.76 1018.14 1018.46 1018.95 1019.12 1019.04 1019.40
999.36 999.21 999.11 997.60 995.90 994.93 993.77 994.18 993.93 993.80 994.02 993.92 994.12 994.00 995.39 996.90 998.61 1000.13 1001.34 1002.49 1003.60 1004.90 1005.93 1006.96 1008.10 1009.60 1010.76 1011.60 1012.51 1013.30 1014.10 1014.40 1014.42 1014.77 1015.38 1015.26 1015.30 1015.04 1015.62 1016.19 1016.94 1017.13 1017.48 1017.63 1017.89 1018.26 1018.72 1019.20 1019.23
1000.06 999.22 998.86 998.02 996.28 994.06 992.78 991.91 991.97 992.97 993.40 993.88 994.12 994.02 994.55 995.68 997.06 998.73 1000.04 1001.39 1002.55 1003.71 1005.00 1006.38 1007.57 1008.58 1009.66 1010.70 1011.47 1012.19 1013.02 1013.78 1014.01 1014.49 1014.88 1015.11 1015.11 1015.41 1015.42 1016.06 1016.52 1016.92 1017.06 1017.34 1017.72 1017.64 1018.02 1018.61 1018.92
1000.89 999.64 998.92 997.75 997.23 995.18 993.40 991.38 991.29 991.85 993.12 993.50 993.92 994.62 994.67 994.63 995.50 997.20 998.52 1000.01 1001.48 1002.70 1004.04 1005.31 1006.54 1007.64 1008.92 1009.89 1010.51 1011.18 1011.90 1012.79 1013.62 1013.70 1014.28 1014.71 1015.06 1015.26 1015.65 1015.91 1016.29 1016.55 1016.85 1017.16 1017.50 1017.58 1017.34 1017.94 1018.34
1000.84 999.74 999.36 997.94 997.04 996.08 994.44 992.50 991.45 991.61 992.47 993.58 993.68 994.05 994.72 995.04 995.14 996.26 997.31 998.74 1000.22 1001.59 1002.63 1003.84 1005.15 1006.42 1007.42 1008.38 1009.32 1010.09 1010.88 1011.65 1012.46 1013.06 1013.41 1014.10 1014.64 1015.06 1015.31 1015.78 1015.96 1016.22 1016.46 1016.74 1017.07 1017.37 1017.16 1017.51 1017.62
Wind_Speed
15 14 6 5 3 6 3 6 11 17 15 5 13 6 14 13 6 11 22 20 23 19 18 16 14 15 14 13 13 12 11 11 11 11 10 10 10 9 8 9 9 9 10 10 10 10 10 11 10
13 10 4 3 5 2 1 8 9 12 11 13 12 13 10 16 13 23 20 24 21 20 19 17 13 13 13 13 13 13 12 11 11 10 10 10 10 10 8 8 8 10 10 10 9 10 11 11 11
11 8 2 4 0 1 2 7 14 18 15 12 9 10 11 11 22 17 22 22 21 20 19 17 14 14 14 13 12 12 11 10 11 11 10 10 9 12 9 9 10 9 10 10 10 11 11 11 11
6 4 6 6 10 12 10 8 18 18 13 14 11 12 9 13 18 19 26 23 20 20 19 16 15 14 13 13 12 11 12 10 10 10 10 11 11 10 9 9 9 8 10 9 10 10 9 10 9
5 6 4 8 9 14 11 11 11 15 13 18 13 12 10 17 15 24 23 21 20 20 18 16 14 14 14 13 12 12 11 11 11 11 11 11 12 11 10 9 9 8 8 9 9 9 9 10 9
4 6 8 3 9 11 10 11 12 9 13 13 16 14 11 9 19 22 20 19 20 20 18 16 14 13 13 14 13 11 12 12 11 12 12 11 11 11 9 9 9 7 8 8 8 9 11 12 9
12 8 12 12 4 8 7 8 6 8 14 11 13 14 15 19 24 22 20 18 19 20 18 16 15 13 13 12 12 12 12 12 12 13 12 12 11 10 9 9 9 8 7 7 8 7 7 8 8
7 13 15 11 8 7 13 16 9 11 14 15 12 6 19 20 25 21 19 18 18 20 16 15 15 13 12 12 11 11 11 11 11 11 13 13 12 11 10 11 8 9 8 7 8 8 7 10 10
4 7 6 5 1 4 13 12 12 5 11 6 6 13 22 27 25 19 19 18 15 15 17 16 16 13 13 12 11 11 10 11 12 10 10 14 9 11 12 13 8 9 7 7 8 8 11 15 14
13 9 2 15 6 4 9 10 13 11 12 7 9 15 25 28 23 18 21 19 18 16 17 15 16 14 12 11 11 11 11 10 9 8 10 8 5 6 11 9 8 8 8 8 8 9 13 13 5
17 13 13 12 9 3 11 9 11 11 15 16 14 24 26 24 22 23 21 21 18 16 13 16 13 14 13 12 9 7 7 6 7 5 4 7 6 5 2 6 7 8 9 8 11 5 7 12 6
19 14 12 7 0 4 7 9 12 10 12 19 19 26 27 27 25 22 21 20 20 17 14 15 13 9 8 8 8 7 7 6 7 8 3 4 4 3 7 1 6 3 7 12 6 6 5 11 10
20 19 7 12 6 9 5 10 7 8 12 18 22 26 27 26 26 23 20 20 19 17 15 15 14 9 8 7 5 5 7 5 8 8 6 5 3 3 5 3 1 6 3 5 7 2 8 7 6
11 19 15 11 10 11 11 9 10 14 13 18 21 25 26 27 27 23 21 21 20 18 16 16 14 12 10 8 3 4 6 4 3 4 7 1 3 2 4 5 3 5 9 8 7 3 1 1 4
16 11 16 18 14 9 13 16 15 16 16 18 20 21 24 25 25 22 21 20 19 17 17 16 15 14 11 8 7 5 4 7 4 5 6 4 0 2 1 3 3 6 3 4 3 4 2 1 4
18 19 18 20 20 16 14 16 19 19 17 19 20 20 22 24 23 21 20 19 19 17 17 16 14 15 12 9 8 7 6 6 4 6 7 6 4 2 3 3 2 3 2 8 5 3 3 4 1
15 16 22 19 23 18 21 10 4 10 18 18 19 20 21 23 22 21 20 19 19 18 17 16 15 16 13 11 9 8 7 4 5 3 5 8 5 4 3 2 5 3 2 5 2 9 7 6 6
18 19 20 22 17 19 20 8 23 30 19 19 19 20 21 23 24 22 22 20 19 18 18 16 14 13 13 10 7 7 8 7 5 8 6 7 5 4 1 4 5 6 2 4 8 4 5 4 6
19 16 21 18 19 16 21 19 22 18 19 19 19 20 21 23 23 22 21 20 20 19 19 17 15 12 11 10 10 9 8 8 5 5 7 8 3 5 3 2 6 4 3 4 3 3 3 3 2
22 15 15 18 14 16 18 21 15 17 18 19 19 19 21 22 25 23 23 22 21 20 19 17 15 13 11 10 8 8 7 9 7 7 8 6 7 5 6 8 4 3 4 3 3 1 5 2 6
20 20 16 15 12 11 19 21 22 16 20 18 19 18 20 22 25 25 25 24 22 22 20 18 16 15 13 12 8 7 7 5 8 5 7 8 8 8 5 5 5 4 5 7 5 5 7 1 3
20 17 19 18 17 14 20 16 22 18 18 20 20 19 21 23 24 26 26 24 24 23 21 19 18 16 15 13 12 12 10 9 8 7 8 9 9 8 8 6 6 4 4 3 5 4 5 5 5
18 16 20 19 17 17 20 19 17 26 25 24 22 22 21 24 25 27 28 27 25 23 22 20 19 17 16 15 12 12 12 9 9 9 10 6 8 8 8 8 9 6 7 4 2 2 5 4 4
18 18 19 16 16 18 23 22 21 18 30 25 24 21 23 24 25 25 26 25 23 23 22 22 20 19 17 17 16 14 14 11 10 9 10 9 9 9 8 8 7 8 4 7 6 5 5 6 5
17 21 14 15 17 18 23 25 19 19 21 28 26 26 23 23 23 24 25 25 25 26 25 22 22 21 20 19 18 15 14 13 9 10 9 10 10 9 12 8 8 8 7 7 4 6 4 5 4
26 22 15 26 16 19 24 25 23 25 19 21 24 27 25 23 23 24 25 25 26 26 24 22 23 23 22 20 19 17 16 12 12 10 10 10 9 9 10 10 9 9 9 8 8 7 8 7 6
21 27 25 27 23 22 20 27 22 26 27 23 12 21 24 27 23 26 25 25 25 24 24 24 23 23 23 23 18 18 16 16 14 13 12 10 9 7 9 10 10 10 9 8 9 8 8 6 6
23 17 24 19 26 25 20 24 19 23 20 26 19 14 19 27 26 24 24 25 24 25 24 23 22 23 23 22 20 18 18 17 14 13 13 13 8 9 5 10 10 11 10 9 8 8 8 8 8
18 21 16 18 24 19 17 14 13 23 22 20 26 19 18 18 24 23 23 23 24 23 24 24 23 22 22 22 20 20 18 19 17 14 14 12 11 9 10 9 10 10 11 10 9 10 6 10 10
26 20 28 16 20 21 19 11 11 16 20 20 21 25 23 20 19 22 22 23 23 24 24 24 25 25 23 22 21 21 20 19 18 18 15 15 13 12 10 11 10 11 11 11 11 12 10 10 9
Wind_Direction
183 196 220 197 254 231 336 85 150 132 108 137 129 114 94 53 34 99 139 132 134 135 131 147 138 137 134 129 128 128 126 127 128 128 128 125 119 120 105 102 90 86 86 88 85 101 93 97 96
188 183 198 251 254 117 101 96 90 97 106 104 89 110 118 68 89 125 132 131 137 141 149 137 138 130 130 133 131 130 134 132 135 131 130 122 125 114 109 100 98 83 80 85 81 90 95 94 86
209 189 213 245 231 330 148 152 102 109 105 123 90 66 28 83 121 123 138 128 152 143 126 117 132 136 132 124 126 120 122 126 129 129 124 126 113 113 119 99 98 95 90 86 92 96 99 92 95
183 202 233 251 216 227 88 150 113 126 150 79 127 81 91 107 140 133 140 148 148 127 120 127 133 130 131 124 119 120 118 126 122 123 132 119 127 117 110 96 87 92 88 84 82 92 99 107 98
227 255 262 247 194 89 137 148 134 143 130 123 157 97 95 133 139 149 148 152 141 127 127 133 129 129 123 124 126 122 125 120 122 117 125 125 113 114 105 101 94 86 90 90 88 89 99 113 109
239 209 258 313 309 114 145 136 133 143 138 106 109 112 134 164 149 149 154 150 137 127 140 134 131 132 132 128 129 125 124 123 119 119 120 116 114 114 117 106 102 101 96 103 100 93 96 98 105
243 272 274 223 216 137 135 150 110 154 126 151 123 112 125 173 154 153 159 144 140 139 123 133 134 135 129 127 125 126 125 127 124 123 121 121 124 121 114 108 102 105 105 114 115 106 105 115 116
264 279 273 316 309 52 132 116 195 130 91 95 141 161 155 160 159 156 157 151 145 133 143 144 138 149 148 145 129 124 125 121 129 132 134 137 130 136 130 133 99 100 113 120 122 121 119 128 134
200 253 265 263 153 172 137 142 106 85 130 121 184 148 149 155 162 160 155 153 143 141 149 152 150 145 145 139 132 135 132 131 133 143 158 174 135 150 143 82 111 106 114 131 143 155 151 141 147
232 224 57 235 24 156 136 136 126 170 151 150 158 112 149 158 154 166 166 154 154 153 160 150 147 144 161 147 161 154 148 164 169 136 191 209 75 59 103 107 123 121 142 148 175 196 196 187 168
217 260 276 313 18 58 151 145 136 184 183 156 150 140 149 159 159 182 168 159 158 163 171 151 134 133 190 113 183 160 175 139 122 130 218 101 125 145 220 137 157 148 189 171 186 139 249 164 268
256 248 265 330 347 344 193 156 168 126 261 132 136 145 155 169 171 178 172 162 156 171 173 147 138 170 135 160 193 170 129 161 155 148 170 145 207 151 70 184 193 62 172 184 38 158 149 152 139
225 260 218 229 157 292 168 202 145 183 83 111 139 150 164 172 173 177 179 162 161 172 168 146 148 171 131 209 196 167 138 176 114 152 203 174 181 142 145 104 256 126 226 166 93 338 22 21 132
229 236 253 233 225 176 255 187 183 139 124 131 149 160 169 177 175 176 178 166 166 176 167 152 163 171 149 211 163 142 167 107 118 134 133 262 333 141 139 158 195 268 108 263 108 74 112 52 282
259 247 236 241 218 198 225 214 197 123 150 149 158 168 171 179 178 174 176 170 171 179 167 160 171 170 162 175 177 208 166 148 163 104 145 165 134 172 21 74 188 86 121 94 122 146 310 281 129
232 242 248 209 221 222 228 223 182 145 163 160 161 170 175 179 177 177 179 175 172 183 169 169 184 166 173 170 181 210 171 182 136 152 150 157 129 118 211 113 182 65 233 68 273 183 30 63 264
207 229 223 235 201 221 215 224 56 184 175 163 164 169 178 179 178 183 184 178 171 181 171 181 190 167 177 161 180 208 139 228 165 98 103 152 161 165 132 189 113 240 214 139 298 122 207 209 215
209 216 237 218 200 210 217 211 132 224 177 164 167 169 180 183 185 179 187 183 176 179 173 191 185 166 169 162 188 201 150 227 203 144 142 165 167 164 152 186 137 241 196 87 140 244 165 285 126
263 226 233 234 214 205 228 213 147 185 173 165 170 174 181 185 187 178 190 185 182 181 176 188 185 167 171 180 193 190 178 206 188 197 135 147 188 177 219 160 156 271 346 51 124 156 175 297 162
253 257 253 241 213 212 214 236 169 179 182 172 177 178 182 184 180 185 190 187 189 184 182 183 187 172 187 192 199 197 201 188 197 202 161 209 186 169 204 142 232 176 190 177 196 224 301 289 102
229 241 240 253 225 249 242 233 213 183 183 183 182 184 184 186 183 187 189 192 191 187 186 182 187 178 188 198 193 199 205 209 201 179 175 191 191 184 234 158 120 170 271 160 207 238 258 221 152
236 219 257 254 250 221 219 238 215 168 201 187 185 186 186 187 191 185 189 195 193 191 188 183 184 184 187 210 185 189 203 204 183 206 193 169 199 195 180 168 166 197 257 106 191 214 285 264 171
242 241 221 246 251 249 238 226 245 187 207 184 194 186 196 185 190 189 192 192 195 192 189 189 183 187 190 194 211 183 218 201 187 201 154 217 168 204 201 176 171 182 214 187 231 111 265 244 296
236 243 251 235 234 238 235 247 225 214 198 212 181 192 194 188 189 195 192 189 196 193 192 191 183 189 195 188 210 196 195 229 206 205 165 189 179 188 208 191 198 191 176 179 199 181 227 288 297
215 224 222 223 218 235 223 231 243 219 228 206 193 187 191 197 190 195 191 190 192 195 195 190 183 188 190 192 194 206 202 212 240 178 216 199 201 195 168 199 191 191 213 183 184 202 218 222 247
212 225 227 218 216 226 230 224 224 247 254 230 216 182 187 195 188 196 197 193 191 196 192 193 184 187 189 195 194 199 199 201 218 205 207 222 215 199 149 179 204 218 190 200 164 194 218 191 210
230 216 244 258 238 237 212 218 234 214 234 250 269 192 184 185 195 193 196 198 196 194 194 194 189 187 191 194 192 191 200 211 198 215 212 223 222 219 177 191 197 215 212 212 177 226 204 148 218
263 259 220 236 249 254 235 221 205 209 216 224 226 236 193 192 183 197 195 198 199 196 197 195 196 191 192 194 193 194 193 200 211 202 201 217 225 231 209 194 207 211 215 212 210 209 196 177 223
222 247 257 249 231 247 247 232 233 194 198 221 218 205 234 218 183 195 193 194 198 200 197 198 195 193 192 201 197 197 196 197 204 203 202 215 212 222 210 227 207 215 212 211 206 239 230 185 207
245 247 232 240 227 235 256 239 291 200 184 204 232 218 218 225 214 195 197 191 193 199 198 197 199 199 195 200 198 197 194 195 197 205 204 198 211 211 213 216 213 214 215 209 206 214 223 222 217